Regional Weather Roundup
Issued by NWS Glasgow, MT

Home | Current Version | Previous Version | Text Only | Print | Product List | Glossary On
Versions: 1 2 3 4 5 6 7 8 9 10 11 12 13 14 15 16 17 18 19 20 21 22 23 24 25 26 27 28 29 30 31 32 33 34 35 36 37 38 39 40 41 42 43 44 45 46 47 48 49 50
000
ASUS45 KGGW 191015
RWRGGW
HOURLY WEATHER ROUNDUP FOR NORTHEAST MONTANA
NATIONAL WEATHER SERVICE GLASGOW MONTANA
400 AM MDT SUN APR 19 2015

NOTE: "FAIR" INDICATES FEW OR NO CLOUDS BELOW 12,000 FEET WITH NO
SIGNIFICANT WEATHER AND/OR OBSTRUCTIONS TO VISISBILITY.

NORTHEAST MONTANA


CITY           SKY/WX    TMP DP  RH WIND       PRES   REMARKS
GLASGOW        CLEAR     33  23  66 W13       30.13S
PLENTYWOOD       N/A     39  32  76 NW15G26     N/A
WOLF POINT     FAIR      32  24  72 W10       30.09F
JORDAN           N/A     31  20  63 NW13      30.17F
WINNETT          N/A     32  24  72 W8          N/A
SIDNEY         CLEAR     37  25  60 W15       30.03F
GLENDIVE       CLEAR     36  23  60 W17G23    30.08S
MALTA            N/A     30  23  75 SW10        N/A
SCOBEY           N/A     39  28  65 W20G25    30.02S
OPHEIM           N/A     32  28  86 NW22      30.00S

FORT PECK REPORTS


CITY           SKY/WX    TMP DP  RH WIND       PRES   REMARKS
FORT PECK        N/A     36  25  64 W15         N/A
THE PINES        N/A     37  23  56 W10         N/A

SOUTHEAST MONTANA


CITY           SKY/WX    TMP DP  RH WIND       PRES   REMARKS
BILLINGS       PTCLDY    34  25  69 NW12      30.24S
MILES CITY     CLEAR     31  18  58 NW12      30.15S
BAKER          CLEAR     32  21  64 W16       30.08R
LIVINGSTON     CLOUDY    34  26  72 CALM      30.25F

CENTRAL MONTANA


CITY           SKY/WX    TMP DP  RH WIND       PRES   REMARKS
HAVRE          FAIR      25  19  78 SW5       30.26S
LEWISTOWN      FAIR      26  20  77 CALM      30.24S
GREAT FALLS    CLOUDY    33  30  88 SW5       30.26F
CUT BANK       FAIR      26  21  81 W5        30.27F
HELENA         MOCLDY    35  26  69 SW3       30.27S
BUTTE          FAIR      25  21  85 CALM      30.24F
BOZEMAN        CLOUDY    31  25  78 CALM      30.27S

WESTERN MONTANA


CITY           SKY/WX    TMP DP  RH WIND       PRES   REMARKS
MISSOULA       FAIR      41  26  55 SE16      30.22R
KALISPELL      NOT AVBL

NORTH DAKOTA


CITY           SKY/WX    TMP DP  RH WIND       PRES   REMARKS
WILLISTON      CLOUDY    40  29  64 NW17      29.98F
DICKINSON      CLEAR     34  26  72 W17       29.96F
MINOT          CLOUDY    41  31  67 W17       29.88F
BISMARCK       CLOUDY    43  34  70 NW15G23   29.91R

SOUTHERN SASKATCHEWAN


CITY           SKY/WX    TMP DP  RH WIND       PRES   REMARKS
REGINA         CLOUDY    39  34  81 NW20G26   29.99S
ESTEVAN        PTCLDY    39  34  81 NW15      29.93F
SWIFT CURRENT  CLOUDY    34  30  86 NW13G21   30.14R



USA.gov is the U.S. government's official web portal to all federal, state and local government web resources and services.